Location: Cruquius
(52.3348°N, 4.6319°E)
Time: 23:10:03
(UTC+00:00)

Cosmos 1867 - Pass Details

Date: 12 May 2021
Orbit: 773 x 802 km, 65.0° (Epoch: 24 June)

Event Time Altitude Azimuth Distance (km) Brightness Sun altitude
Exits shadow 22:54:37 33° 149° (SSE) 1,320 4.2 -18.7°
Maximum altitude 22:55:54 37° 119° (ESE) 1,214 4.2 -18.7°
Drops below altitude 10° 23:00:54 10° 53° (NE) 2,381 6.4 -18.8°
Sets 23:03:29 0° 46° (NE) 3,319 7.3 -18.9°
